Back to catalog

FENGYUN 1C DEB

AliveSSO
NORAD 30684·DEBRIS·🇨🇳 China

Launched May 10, 1999 from Taiyuan Satellite Launch Center

Loading…

Next Passes (next 24 hours)

TLE

FreshSource: Space-Track

Epoch: Sep 14, 2026, 02:04 UTC

1 30684U 99025AQS 26257.08658231  .00000752  00000-0  78563-3 0  9997
2 30684  99.5112 299.3427 0233702 282.1948  75.3112 13.67329639973914

Track FENGYUN 1C DEB in real time with AllMySat

Download on the App Store